This demonstration page uses our WeatherBlox Daily Observations layout. Learn more.

Left ArrowRight Arrow

Hourly Observations for June 5, 2021

Temp ( °F °C ) Dew Point ( °F °C ) Humidity (%) Winds ( mph kmh ) Pressure ( in mb ) Visibility ( mi km ) Precip ( " mm )
12:53 am 00:53 Clear 81 27.2 37 2.8 21 21 Calm 29.81 1010 10 16 0.00 0.00
1:53 am 01:53 Clear 77 25 37 2.8 24 24 SSW 3 6 29.80 1009 10 16 0.00 0.00
2:53 am 02:53 Clear 76 24.4 40 4.4 27 27 SW 5 7 29.82 1010 10 16 0.00 0.00
3:53 am 03:53 Clear 72 22.2 41 5 33 33 SW 5 7 29.83 1010 10 16 0.00 0.00
4:53 am 04:53 Clear 70 21.1 44 6.7 39 39 Calm 29.83 1010 10 16 0.00 0.00
5:53 am 05:53 Sunny 66 18.9 45 7.2 47 47 NNE 3 6 29.83 1010 10 16 0.00 0.00
6:53 am 06:53 Sunny 70 21.1 46 7.8 42 42 ENE 3 6 29.85 1011 10 16 0.00 0.00
7:53 am 07:53 Sunny 77 25 40 4.4 26 26 N 5 7 29.85 1011 10 16 0.00 0.00
8:53 am 08:53 Sunny 80 26.7 39 3.9 23 23 VRB 5 7 29.85 1011 10 16 0.00 0.00
9:53 am 09:53 Sunny 84 28.9 43 6.1 24 24 N 7 11 29.84 1011 10 16 0.00 0.00
10:53 am 10:53 Sunny 87 30.6 45 7.2 23 23 Calm 29.83 1010 10 16 0.00 0.00
11:53 am 11:53 Sunny 90 32.2 43 6.1 19 19 VRB 3 6 29.82 1010 10 16 0.00 0.00
12:53 pm 12:53 Sunny 94 34.4 34 1.1 12 12 NW 6 9 29.80 1009 10 16 0.00 0.00
1:53 pm 13:53 Sunny 95 35 34 1.1 12 12 VRB 3 6 29.77 1008 10 16 0.00 0.00
2:53 pm 14:53 Sunny 97 36.1 35 1.7 11 11 S 9 15 29.75 1007 10 16 0.00 0.00
3:53 pm 15:53 Sunny 98 36.7 31 -0.6 9 9 VRB 3 6 29.73 1007 10 16 0.00 0.00
4:53 pm 16:53 Sunny 99 37.2 23 -5 6 6 NNW 9 15 29.71 1006 10 16 0.00 0.00
5:53 pm 17:53 Sunny 98 36.7 18 -7.8 5 5 NW 8 13 29.70 1006 10 16 0.00 0.00
6:53 pm 18:53 Sunny 95 35 19 -7.2 6 6 WNW 8 13 29.69 1006 10 16 0.00 0.00
7:53 pm 19:53 Sunny 91 32.8 22 -5.6 8 8 WNW 9 15 29.70 1006 10 16 0.00 0.00
8:53 pm 20:53 Clear 87 30.6 29 -1.7 12 12 NW 9 15 29.71 1006 10 16 0.00 0.00
9:53 pm 21:53 Clear 84 28.9 31 -0.6 15 15 WNW 8 13 29.74 1007 10 16 0.00 0.00
10:53 pm 22:53 Clear 81 27.2 33 0.6 18 18 NW 9 15 29.75 1008 10 16 0.00 0.00
11:53 pm 23:53 Clear 79 26.1 34 1.1 20 20 NW 8 13 29.76 1008 10 16 0.00 0.00

Powered by AerisWeather